This is the latest recevied weather packets stored in our database for station/object JA3YAI-13. If no packets are shown the sender has not sent any weather packets the latest 10 day(s).
| Time | Temp. | Humidity | Pressure | Rain* | Wind** | Luminosity | Snow |
|---|---|---|---|---|---|---|---|
| 1777340185 | 22.78° C | 73% | 1004.6 hPa | 0 mm | - | - | - |
| 1777339585 | 22.22° C | 75% | 1004.7 hPa | 0 mm | - | - | - |
| 1777338985 | 22.22° C | 76% | 1004.9 hPa | 0 mm | - | - | - |
| 1777338384 | 21.67° C | 75% | 1005 hPa | 0 mm | - | - | - |
| 1777337784 | 21.11° C | 77% | 1005 hPa | 0 mm | - | - | - |
| 1777337185 | 20° C | 79% | 1005.1 hPa | 0 mm | - | - | - |
| 1777336585 | 20° C | 80% | 1005 hPa | 0 mm | - | - | - |
| 1777335984 | 19.44° C | 79% | 1004.8 hPa | 0 mm | - | - | - |
| 1777335384 | 20° C | 80% | 1005.1 hPa | 0 mm | - | - | - |
| 1777334786 | 19.44° C | 79% | 1004.9 hPa | 0 mm | - | - | - |
| 1777334185 | 19.44° C | 79% | 1005.1 hPa | 0 mm | - | - | - |
| 1777333585 | 19.44° C | 80% | 1005.2 hPa | 0 mm | - | - | - |
| 1777332985 | 19.44° C | 80% | 1005.1 hPa | 0 mm | - | - | - |
| 1777332384 | 18.89° C | 82% | 1005.3 hPa | 0 mm | - | - | - |
| 1777331784 | 18.33° C | 83% | 1005.2 hPa | 0 mm | - | - | - |
| 1777331185 | 17.78° C | 85% | 1005.4 hPa | 0 mm | - | - | - |
| 1777330585 | 16.67° C | 89% | 1005.4 hPa | 0 mm | - | - | - |
| 1777329985 | 16.11° C | 93% | 1005.1 hPa | 0 mm | - | - | - |
| 1777329384 | 15.56° C | 95% | 1005.2 hPa | 0 mm | - | - | - |
| 1777328784 | 15.56° C | 97% | 1005.1 hPa | 0 mm | - | - | - |
| 1777328185 | 15° C | 98% | 1005.2 hPa | 0 mm | - | - | - |
| 1777327585 | 14.44° C | 99% | 1005.2 hPa | 0 mm | - | - | - |
| 1777326984 | 14.44° C | 99% | 1005.4 hPa | 0 mm | - | - | - |
| 1777326384 | 14.44° C | 99% | 1005.3 hPa | 0 mm | - | - | - |
| 1777325784 | 13.89° C | 99% | 1005.4 hPa | 0 mm | - | - | - |
* Rain latest hour (hover to see other rain measurements)
** Current wind speed in m/s (hover to see current wind gust speed)